User: anonymous   Login
Location: Unspecified
(0.0000°N, 0.0000°E)
Time: 03:32:03
(UTC+00:00)
Language:

Oscar 14 - Orbit

View from above orbital plane
View from above orbital plane
View from above satellite
View from above satellite

Ground track
Ground track

The orbit data is extracted from the following two-line orbital elements,

1 20437U 90005B   21342.59379181  .00000010  00000-0  20688-4 0  9994
2 20437  98.8773 325.4965 0011532  61.1519  52.0555 14.32397090665084
Epoch (UTC): 08 December 2021 14:15:03
Eccentricity: 0.0011532
inclination: 98.8773°
perigee height: 775 km
apogee height: 792 km
right ascension of ascending node: 325.4965°
argument of perigee: 61.1519°
revolutions per day: 14.32397090
mean anomaly at epoch: 52.0555°
orbit number at epoch: 66508

The dashed part of the orbit path shows where the satellite is in the earth's shadow,  

DLR